(°C)
(°C)
NNW
NNW
NNW
NNW
NNW
NNW
NNW
(km/h)
14-28
14-27
14-25
14-26
14-27
13-26
14-30
(mm)
0
0
0
0
0
0
0
(%)
0
7
14
14
14
0
0

Wysokość słońca

/ -14.7°
sun-icon
UV 3
04:12
20:41
Ubywający Księżyc garbaty (213°)
00:00
05:15

METAR dla 55.6°N 37.27°E (UUWW)

Czas Warunki Temperatura/
Punkt rosy
Wiatr Widzialność Pogoda Chmury Ciśn. atm. Zmień Surowy
VFR 8°C / 5°C 340º 10kt >10km - Clouds and Visibility OK 1006 No Significant change. Runway 24: Damp, 51-100% contamination with <1mm, friction coefficient 0.60. UUWW 172100Z 34005MPS CAVOK 08/05 Q1006 R24/190060 NOSIG
VFR 8°C / 5°C 330º 12kt >10km - Clouds and Visibility OK 1006 No Significant change. Runway 24: Damp, 51-100% contamination with <1mm, friction coefficient 0.60. UUWW 172030Z 33006MPS CAVOK 08/05 Q1006 R24/190060 NOSIG
VFR 8°C / 5°C 320º 12kt >10km - Clouds and Visibility OK 1006 No Significant change. Runway 24: Damp, 51-100% contamination with <1mm, friction coefficient 0.60. UUWW 172000Z 32006MPS CAVOK 08/05 Q1006 R24/190060 NOSIG
VFR 8°C / 5°C 320º variable 290º to 360º 8kt >10km - Clouds and Visibility OK 1006 No Significant change. Runway 24: Damp, 51-100% contamination with <1mm, friction coefficient 0.60. UUWW 171930Z 32004MPS 290V360 CAVOK 08/05 Q1006 R24/190060 NOSIG
VFR 8°C / 5°C 320º 10kt >10km - Few Clouds 4600ft 1006 Temporary: Visibility 2100. Light Showers Rain . Broken Clouds 1600ft. Cumulonimbus . Runway 24: Damp, 51-100% contamination with <1mm, friction coefficient 0.60. UUWW 171900Z 32005MPS 9999 FEW046CB 08/05 Q1006 R24/190060 TEMPO 2100 -SHRA BKN016CB
VFR 8°C / 5°C 300º 6kt >10km - Clouds and Visibility OK 1006 Temporary: Visibility 2100. Light Showers Rain . Broken Clouds 1600ft. Cumulonimbus . Runway 24: Damp, 51-100% contamination with <1mm, friction coefficient 0.60. UUWW 171830Z 30003MPS CAVOK 08/05 Q1006 R24/190060 TEMPO 2100 -SHRA BKN016CB
VFR 8°C / 5°C 310º 8kt. Wind Shear present on Runway 24. >10km - Clouds and Visibility OK 1006 No Significant change. Runway 24: Damp, 51-100% contamination with <1mm, friction coefficient 0.60. UUWW 171800Z 31004MPS CAVOK 08/05 Q1006 WS R24 R24/190060 NOSIG
VFR 9°C / 5°C 310º 8kt >10km - Few Clouds 3300ft 1005 No Significant change. Runway 24: Damp, 51-100% contamination with <1mm, friction coefficient 0.60. UUWW 171730Z 31004MPS 9999 FEW033 09/05 Q1005 R24/190060 NOSIG
MVFR 9°C / 5°C 310º 12kt >10km - Broken Clouds 1700ft 1005 Temporary: 33011G18MPS Visibility 2100. Light Showers Rain . Broken Clouds 1600ft. Cumulonimbus . Runway 24: Damp, 51-100% contamination with <1mm, friction coefficient 0.60. UUWW 171700Z 31006MPS 9999 BKN017 09/05 Q1005 R24/190060 TEMPO 33011G18MPS 2100 -SHRA BKN016CB
MVFR 10°C / 5°C 330º 12kt >10km - Broken Clouds 1700ft 1005 Temporary: 33011G18MPS Visibility 2100. Light Showers Rain . Broken Clouds 1600ft. Cumulonimbus . Runway 24: Damp, 51-100% contamination with <1mm, friction coefficient 0.60. UUWW 171630Z 33006MPS 9999 BKN017 10/05 Q1005 R24/190060 TEMPO 33011G18MPS 2100 -SHRA BKN016CB
MVFR 10°C / 6°C 320º 12kt >10km - Broken Clouds 1600ft 1005 Temporary: 33011G18MPS Visibility 2100. Light Showers Rain . Broken Clouds 1600ft. Cumulonimbus . Runway 24: Damp, 51-100% contamination with <1mm, friction coefficient 0.60. UUWW 171600Z 32006MPS 9999 BKN016 10/06 Q1005 R24/190060 TEMPO 33011G18MPS 2100 -SHRA BKN016CB
VFR 10°C / 6°C 320º 14kt. Wind Shear present on Runway 24. >10km - Few Clouds 1500ft
Broken Clouds 3400ft
1005 No Significant change. Runway 24: Damp, 51-100% contamination with <1mm, friction coefficient 0.60. UUWW 171530Z 32007MPS 9999 FEW015 BKN034 10/06 Q1005 WS R24 R24/190060 NOSIG
MVFR 10°C / 6°C 310º 12kt >10km - Few Clouds 1300ft
Overcast 3000ft
1005 No Significant change. Runway 24: Damp, 51-100% contamination with <1mm, friction coefficient 0.60. UUWW 171500Z 31006MPS 9999 FEW013 OVC030 10/06 Q1005 R24/190060 NOSIG
MVFR 9°C / 6°C 320º 12kt >10km - Broken Clouds 1300ft
Overcast 2300ft
1005 No Significant change. Runway 24: Wet or puddles, 51-100% contamination with <1mm, friction coefficient 0.50. UUWW 171430Z 32006MPS 9999 BKN013 OVC023 09/06 Q1005 R24/290050 NOSIG
MVFR 9°C / 6°C 320º 10kt >10km - Broken Clouds 1200ft
Overcast 2100ft
1005 No Significant change. Runway 24: Wet or puddles, 51-100% contamination with <1mm, friction coefficient 0.50. UUWW 171400Z 32005MPS 9999 BKN012 OVC021 09/06 Q1005 R24/290050 NOSIG
MVFR 9°C / 6°C 320º 12kt. Wind Shear present on Runway 24. >10km - Broken Clouds 1000ft
Overcast 2100ft
1004 No Significant change. Runway 24: Wet or puddles, 51-100% contamination with <1mm, friction coefficient 0.50. UUWW 171330Z 32006MPS 9999 BKN010 OVC021 09/06 Q1004 WS R24 R24/290050 NOSIG
IFR 9°C / 6°C 310º 10kt >10km - Overcast 900ft 1004 No Significant change. Runway 24: Wet or puddles, 51-100% contamination with <1mm, friction coefficient 0.50. UUWW 171300Z 31005MPS 9999 OVC009 09/06 Q1004 R24/290050 NOSIG
IFR 9°C / 6°C 320º 10kt >10km - Overcast 700ft 1004 No Significant change. Runway 24: Wet or puddles, 51-100% contamination with <1mm, friction coefficient 0.50. UUWW 171230Z 32005MPS 9999 OVC007 09/06 Q1004 R24/290050 NOSIG
IFR 9°C / 6°C 310º 10kt >10km - Overcast 900ft 1004 No Significant change. Runway 24: Wet or puddles, 51-100% contamination with <1mm, friction coefficient 0.50. UUWW 171200Z 31005MPS 9999 OVC009 09/06 Q1004 R24/290050 NOSIG
IFR 8°C / 6°C 310º 12kt >10km - Overcast 600ft 1004 No Significant change. Runway 24: Wet or puddles, 51-100% contamination with <1mm, friction coefficient 0.50. UUWW 171130Z 31006MPS 9999 OVC006 08/06 Q1004 R24/290050 NOSIG
IFR 8°C / 6°C 310º 12kt >10km - Overcast 500ft 1003 No Significant change. Runway 24: Wet or puddles, 51-100% contamination with <1mm, friction coefficient 0.50. UUWW 171100Z 31006MPS 9999 OVC005 08/06 Q1003 R24/290050 NOSIG
LIFR 8°C / 6°C 320º 16kt 9000m - Broken Clouds 300ft
Overcast 2000ft
1003 No Significant change. Runway 24: Wet or puddles, 51-100% contamination with <1mm, friction coefficient 0.50. UUWW 171030Z 32008MPS 9000 BKN003 OVC020 08/06 Q1003 R24/290050 NOSIG
IFR 8°C / 6°C 320º 12kt 9000m Light Rain 1.00mm precipitation Vertical Visibility of 0ft. 1003 No Significant change. Runway 24: Wet or puddles, 51-100% contamination with <1mm, friction coefficient 0.50. UUWW 171000Z 32006MPS 9000 -RA OVC005 08/06 Q1003 R24/290050 NOSIG
IFR 8°C / 6°C 320º 14kt >10km Light Rain 1.00mm precipitation Vertical Visibility of 0ft. 1003 No Significant change. Runway 24: Wet or puddles, 51-100% contamination with <1mm, friction coefficient 0.50. UUWW 170930Z 32007MPS 9999 -RA OVC007 08/06 Q1003 R24/290050 NOSIG

VFR

8°C / 5°C

[Więcej]
Wiatr 340º 10kt
Widzialność >10km
Pogoda -
Chmury Clouds and Visibility OK
Ciśn. atm. 1006
Zmień No Significant change. Runway 24: Damp, 51-100% contamination with <1mm, friction coefficient 0.60.
Surowy UUWW 172100Z 34005MPS CAVOK 08/05 Q1006 R24/190060 NOSIG

VFR

8°C / 5°C

[Więcej]
Wiatr 330º 12kt
Widzialność >10km
Pogoda -
Chmury Clouds and Visibility OK
Ciśn. atm. 1006
Zmień No Significant change. Runway 24: Damp, 51-100% contamination with <1mm, friction coefficient 0.60.
Surowy UUWW 172030Z 33006MPS CAVOK 08/05 Q1006 R24/190060 NOSIG

VFR

8°C / 5°C

[Więcej]
Wiatr 320º 12kt
Widzialność >10km
Pogoda -
Chmury Clouds and Visibility OK
Ciśn. atm. 1006
Zmień No Significant change. Runway 24: Damp, 51-100% contamination with <1mm, friction coefficient 0.60.
Surowy UUWW 172000Z 32006MPS CAVOK 08/05 Q1006 R24/190060 NOSIG

VFR

8°C / 5°C

[Więcej]
Wiatr 320º variable 290º to 360º 8kt
Widzialność >10km
Pogoda -
Chmury Clouds and Visibility OK
Ciśn. atm. 1006
Zmień No Significant change. Runway 24: Damp, 51-100% contamination with <1mm, friction coefficient 0.60.
Surowy UUWW 171930Z 32004MPS 290V360 CAVOK 08/05 Q1006 R24/190060 NOSIG

VFR

8°C / 5°C

[Więcej]
Wiatr 320º 10kt
Widzialność >10km
Pogoda -
Chmury Few Clouds 4600ft
Ciśn. atm. 1006
Zmień Temporary: Visibility 2100. Light Showers Rain . Broken Clouds 1600ft. Cumulonimbus . Runway 24: Damp, 51-100% contamination with <1mm, friction coefficient 0.60.
Surowy UUWW 171900Z 32005MPS 9999 FEW046CB 08/05 Q1006 R24/190060 TEMPO 2100 -SHRA BKN016CB

VFR

8°C / 5°C

[Więcej]
Wiatr 300º 6kt
Widzialność >10km
Pogoda -
Chmury Clouds and Visibility OK
Ciśn. atm. 1006
Zmień Temporary: Visibility 2100. Light Showers Rain . Broken Clouds 1600ft. Cumulonimbus . Runway 24: Damp, 51-100% contamination with <1mm, friction coefficient 0.60.
Surowy UUWW 171830Z 30003MPS CAVOK 08/05 Q1006 R24/190060 TEMPO 2100 -SHRA BKN016CB

VFR

8°C / 5°C

[Więcej]
Wiatr 310º 8kt. Wind Shear present on Runway 24.
Widzialność >10km
Pogoda -
Chmury Clouds and Visibility OK
Ciśn. atm. 1006
Zmień No Significant change. Runway 24: Damp, 51-100% contamination with <1mm, friction coefficient 0.60.
Surowy UUWW 171800Z 31004MPS CAVOK 08/05 Q1006 WS R24 R24/190060 NOSIG

VFR

9°C / 5°C

[Więcej]
Wiatr 310º 8kt
Widzialność >10km
Pogoda -
Chmury Few Clouds 3300ft
Ciśn. atm. 1005
Zmień No Significant change. Runway 24: Damp, 51-100% contamination with <1mm, friction coefficient 0.60.
Surowy UUWW 171730Z 31004MPS 9999 FEW033 09/05 Q1005 R24/190060 NOSIG

MVFR

9°C / 5°C

[Więcej]
Wiatr 310º 12kt
Widzialność >10km
Pogoda -
Chmury Broken Clouds 1700ft
Ciśn. atm. 1005
Zmień Temporary: 33011G18MPS Visibility 2100. Light Showers Rain . Broken Clouds 1600ft. Cumulonimbus . Runway 24: Damp, 51-100% contamination with <1mm, friction coefficient 0.60.
Surowy UUWW 171700Z 31006MPS 9999 BKN017 09/05 Q1005 R24/190060 TEMPO 33011G18MPS 2100 -SHRA BKN016CB

MVFR

10°C / 5°C

[Więcej]
Wiatr 330º 12kt
Widzialność >10km
Pogoda -
Chmury Broken Clouds 1700ft
Ciśn. atm. 1005
Zmień Temporary: 33011G18MPS Visibility 2100. Light Showers Rain . Broken Clouds 1600ft. Cumulonimbus . Runway 24: Damp, 51-100% contamination with <1mm, friction coefficient 0.60.
Surowy UUWW 171630Z 33006MPS 9999 BKN017 10/05 Q1005 R24/190060 TEMPO 33011G18MPS 2100 -SHRA BKN016CB

MVFR

10°C / 6°C

[Więcej]
Wiatr 320º 12kt
Widzialność >10km
Pogoda -
Chmury Broken Clouds 1600ft
Ciśn. atm. 1005
Zmień Temporary: 33011G18MPS Visibility 2100. Light Showers Rain . Broken Clouds 1600ft. Cumulonimbus . Runway 24: Damp, 51-100% contamination with <1mm, friction coefficient 0.60.
Surowy UUWW 171600Z 32006MPS 9999 BKN016 10/06 Q1005 R24/190060 TEMPO 33011G18MPS 2100 -SHRA BKN016CB

VFR

10°C / 6°C

[Więcej]
Wiatr 320º 14kt. Wind Shear present on Runway 24.
Widzialność >10km
Pogoda -
Chmury Few Clouds 1500ft
Broken Clouds 3400ft
Ciśn. atm. 1005
Zmień No Significant change. Runway 24: Damp, 51-100% contamination with <1mm, friction coefficient 0.60.
Surowy UUWW 171530Z 32007MPS 9999 FEW015 BKN034 10/06 Q1005 WS R24 R24/190060 NOSIG

MVFR

10°C / 6°C

[Więcej]
Wiatr 310º 12kt
Widzialność >10km
Pogoda -
Chmury Few Clouds 1300ft
Overcast 3000ft
Ciśn. atm. 1005
Zmień No Significant change. Runway 24: Damp, 51-100% contamination with <1mm, friction coefficient 0.60.
Surowy UUWW 171500Z 31006MPS 9999 FEW013 OVC030 10/06 Q1005 R24/190060 NOSIG

MVFR

9°C / 6°C

[Więcej]
Wiatr 320º 12kt
Widzialność >10km
Pogoda -
Chmury Broken Clouds 1300ft
Overcast 2300ft
Ciśn. atm. 1005
Zmień No Significant change. Runway 24: Wet or puddles, 51-100% contamination with <1mm, friction coefficient 0.50.
Surowy UUWW 171430Z 32006MPS 9999 BKN013 OVC023 09/06 Q1005 R24/290050 NOSIG

MVFR

9°C / 6°C

[Więcej]
Wiatr 320º 10kt
Widzialność >10km
Pogoda -
Chmury Broken Clouds 1200ft
Overcast 2100ft
Ciśn. atm. 1005
Zmień No Significant change. Runway 24: Wet or puddles, 51-100% contamination with <1mm, friction coefficient 0.50.
Surowy UUWW 171400Z 32005MPS 9999 BKN012 OVC021 09/06 Q1005 R24/290050 NOSIG

MVFR

9°C / 6°C

[Więcej]
Wiatr 320º 12kt. Wind Shear present on Runway 24.
Widzialność >10km
Pogoda -
Chmury Broken Clouds 1000ft
Overcast 2100ft
Ciśn. atm. 1004
Zmień No Significant change. Runway 24: Wet or puddles, 51-100% contamination with <1mm, friction coefficient 0.50.
Surowy UUWW 171330Z 32006MPS 9999 BKN010 OVC021 09/06 Q1004 WS R24 R24/290050 NOSIG

IFR

9°C / 6°C

[Więcej]
Wiatr 310º 10kt
Widzialność >10km
Pogoda -
Chmury Overcast 900ft
Ciśn. atm. 1004
Zmień No Significant change. Runway 24: Wet or puddles, 51-100% contamination with <1mm, friction coefficient 0.50.
Surowy UUWW 171300Z 31005MPS 9999 OVC009 09/06 Q1004 R24/290050 NOSIG

IFR

9°C / 6°C

[Więcej]
Wiatr 320º 10kt
Widzialność >10km
Pogoda -
Chmury Overcast 700ft
Ciśn. atm. 1004
Zmień No Significant change. Runway 24: Wet or puddles, 51-100% contamination with <1mm, friction coefficient 0.50.
Surowy UUWW 171230Z 32005MPS 9999 OVC007 09/06 Q1004 R24/290050 NOSIG

IFR

9°C / 6°C

[Więcej]
Wiatr 310º 10kt
Widzialność >10km
Pogoda -
Chmury Overcast 900ft
Ciśn. atm. 1004
Zmień No Significant change. Runway 24: Wet or puddles, 51-100% contamination with <1mm, friction coefficient 0.50.
Surowy UUWW 171200Z 31005MPS 9999 OVC009 09/06 Q1004 R24/290050 NOSIG

IFR

8°C / 6°C

[Więcej]
Wiatr 310º 12kt
Widzialność >10km
Pogoda -
Chmury Overcast 600ft
Ciśn. atm. 1004
Zmień No Significant change. Runway 24: Wet or puddles, 51-100% contamination with <1mm, friction coefficient 0.50.
Surowy UUWW 171130Z 31006MPS 9999 OVC006 08/06 Q1004 R24/290050 NOSIG

IFR

8°C / 6°C

[Więcej]
Wiatr 310º 12kt
Widzialność >10km
Pogoda -
Chmury Overcast 500ft
Ciśn. atm. 1003
Zmień No Significant change. Runway 24: Wet or puddles, 51-100% contamination with <1mm, friction coefficient 0.50.
Surowy UUWW 171100Z 31006MPS 9999 OVC005 08/06 Q1003 R24/290050 NOSIG

LIFR

8°C / 6°C

[Więcej]
Wiatr 320º 16kt
Widzialność 9000m
Pogoda -
Chmury Broken Clouds 300ft
Overcast 2000ft
Ciśn. atm. 1003
Zmień No Significant change. Runway 24: Wet or puddles, 51-100% contamination with <1mm, friction coefficient 0.50.
Surowy UUWW 171030Z 32008MPS 9000 BKN003 OVC020 08/06 Q1003 R24/290050 NOSIG

IFR

8°C / 6°C

[Więcej]
Wiatr 320º 12kt
Widzialność 9000m
Pogoda Light Rain 1.00mm precipitation
Chmury Vertical Visibility of 0ft.
Ciśn. atm. 1003
Zmień No Significant change. Runway 24: Wet or puddles, 51-100% contamination with <1mm, friction coefficient 0.50.
Surowy UUWW 171000Z 32006MPS 9000 -RA OVC005 08/06 Q1003 R24/290050 NOSIG

IFR

8°C / 6°C

[Więcej]
Wiatr 320º 14kt
Widzialność >10km
Pogoda Light Rain 1.00mm precipitation
Chmury Vertical Visibility of 0ft.
Ciśn. atm. 1003
Zmień No Significant change. Runway 24: Wet or puddles, 51-100% contamination with <1mm, friction coefficient 0.50.
Surowy UUWW 170930Z 32007MPS 9999 -RA OVC007 08/06 Q1003 R24/290050 NOSIG

TAF dla 55.6°N 37.27°E (UUWW)

From till


Maximum Temperature 12ºC on . Minimum Temperature 5ºC on .
From till Wind 350º 10kt. Gust 19kt. Visibility 10km or more. Broken Clouds 2000ft.
Temporarly from till Wind 360º 16kt. Gust 29kt.

Surowy: TAF UUWW 171952Z 1721/1821 35005G10MPS 9999 BKN020 TX12/1813Z TN05/1803Z TEMPO 1806/1817 36008G15MPS

Radar i prognoza opadów na teraz dla 55.6°N 37.27°E

Mżawka
Lekkie
Umiarkowane
Intensywne
Bardzo Intensywne
Grad

Wskaźnik lokalizacji jest umieszczony na 55.6°N 37.27°E. Animacja przedstawia radar opadów dla ostatniej godziny, jak również 1h prognozę pogody. Mżawka i lekkie opady mogą być niewidoczne na radarze. Intensywność opadów jest oznaczona kolorami od jasnoniebieskiego do ciemnofioletowego.

Aktualne zdjęcia satelitarne i zdjęcia opadów deszczu dla 55.6°N 37.27°E

Wskaźnik lokalizacji znajduje się na 55.6°N 37.27°E. [Więcej]

Obraz satelitarny w czasie rzeczywistym łączy światło widzialne w ciągu dnia z promieniowaniem podczerwonym w nocy. W nocy obraz nie jest ciemny, ponieważ promieniowanie podczerwone może wykrywać różnice temperatur. Niestety niskie chmury i mgłę trudno odróżnić od temperatury gruntu, przez co mogą być prawie niewidoczne w nocy. Zdjęcia satelitarne Meteosat dla Europy są aktualizowane w czasie rzeczywistym co 5 minut. Obrazy GOES-16/GOES-17 (Ameryka Północna i Południowa) oraz Himawari (Azja) są aktualizowane co 10 minut.

Prawa autorskie 2022 EUMETSAT / meteoblue. / Prawa autorskie 2022 meteoblue

Powrót do góry